This is the latest recevied weather packets stored in our database for station/object K0SDS. If no packets are shown the sender has not sent any weather packets the latest 10 day(s).
| Time | Temp. | Humidity | Pressure | Rain* | Wind** | Luminosity | Snow |
|---|---|---|---|---|---|---|---|
| 1778035688 | 10° C | 70% | 1013.3 hPa | 0 mm | - | 0 W/m² | - |
| 1778035385 | 10° C | 70% | 1013.1 hPa | 0 mm | - | 0 W/m² | - |
| 1778035081 | 10.56° C | 71% | 1012.9 hPa | 0 mm | - | 0 W/m² | - |
| 1778034778 | 10.56° C | 69% | 1012.9 hPa | 0 mm | - | 0 W/m² | - |
| 1778034474 | 10.56° C | 68% | 1012.9 hPa | 0 mm | - | 0 W/m² | - |
| 1778034172 | 10.56° C | 67% | 1012.6 hPa | 0 mm | - | 0 W/m² | - |
| 1778033870 | 10.56° C | 67% | 1012.6 hPa | 0 mm | - | 0 W/m² | - |
| 1778033567 | 10.56° C | 68% | 1012.5 hPa | 0 mm | - | 0 W/m² | - |
| 1778033263 | 10.56° C | 67% | 1012.4 hPa | 0 mm | - | 0 W/m² | - |
| 1778032962 | 10.56° C | 67% | 1012.4 hPa | 0 mm | - | 0 W/m² | - |
| 1778032659 | 10.56° C | 68% | 1012.3 hPa | 0 mm | - | 0 W/m² | - |
| 1778032356 | 10.56° C | 67% | 1012.1 hPa | 0 mm | - | 0 W/m² | - |
| 1778032053 | 10.56° C | 72% | 1012.2 hPa | 0 mm | - | 0 W/m² | - |
| 1778031749 | 10.56° C | 72% | 1012.1 hPa | 0 mm | - | 0 W/m² | - |
| 1778031447 | 10.56° C | 78% | 1012.2 hPa | 0 mm | - | 0 W/m² | - |
| 1778031144 | 10.56° C | 79% | 1012 hPa | 0 mm | - | 0 W/m² | - |
| 1778030840 | 10.56° C | 80% | 1012.2 hPa | 0 mm | - | 0 W/m² | - |
| 1778030537 | 10.56° C | 78% | 1011.9 hPa | 0 mm | - | 0 W/m² | - |
| 1778030234 | 10.56° C | 78% | 1012.1 hPa | 0 mm | - | 0 W/m² | - |
| 1778029930 | 10.56° C | 76% | 1012 hPa | 0 mm | - | 0 W/m² | - |
| 1778029629 | 11.11° C | 76% | 1011.9 hPa | 0 mm | - | 0 W/m² | - |
| 1778029326 | 11.11° C | 76% | 1011.9 hPa | 0 mm | - | 2 W/m² | - |
| 1778029023 | 11.11° C | 72% | 1011.7 hPa | 0 mm | - | 3 W/m² | - |
| 1778028719 | 11.11° C | 67% | 1011.6 hPa | 0 mm | - | 5 W/m² | - |
| 1778028415 | 11.67° C | 67% | 1011.5 hPa | 0 mm | - | 9 W/m² | - |
* Rain latest hour (hover to see other rain measurements)
** Current wind speed in m/s (hover to see current wind gust speed)